Time,TemperatureF,DewpointF,PressureIn,WindDirection,WindDirectionDegrees,WindSpeedMPH,WindSpeedGustMPH,Humidity,HourlyPrecipIn,Conditions,Clouds,dailyrainin,SoftwareType,DateUTC
2013-10-19 00:01:00,50.7,46.4,27.88,North,0,0.0,0.0,85,0.00,,---,0.00,VWS V14.01,2013-10-19 04:01:00,
2013-10-19 00:02:00,50.7,46.4,27.88,North,0,0.0,0.0,85,0.00,,---,0.00,VWS V14.01,2013-10-19 04:02:00,
2013-10-19 00:07:00,50.5,46.2,27.88,North,0,0.0,0.0,85,0.00,,---,0.00,VWS V14.01,2013-10-19 04:07:00,
2013-10-19 00:12:00,50.5,46.2,27.88,North,0,0.0,0.0,85,0.00,,---,0.00,VWS V14.01,2013-10-19 04:12:00,
2013-10-19 00:17:00,50.5,46.2,27.88,North,0,0.0,0.0,85,0.00,,---,0.00,VWS V14.01,2013-10-19 04:17:00,
2013-10-19 00:22:00,50.5,46.2,27.88,North,0,0.0,0.0,85,0.00,,---,0.00,VWS V14.01,2013-10-19 04:22:00,
2013-10-19 00:27:00,50.5,46.2,27.88,North,0,0.0,0.0,85,0.00,,---,0.00,VWS V14.01,2013-10-19 04:27:00,
2013-10-19 00:32:00,50.7,46.4,27.88,North,0,0.0,0.0,85,0.00,,---,0.00,VWS V14.01,2013-10-19 04:32:00,
2013-10-19 00:37:00,50.9,46.2,27.85,North,0,0.0,0.0,84,0.00,,---,0.00,VWS V14.01,2013-10-19 04:37:00,
2013-10-19 00:42:00,50.9,46.2,27.85,North,0,0.0,0.0,84,0.00,,---,0.00,VWS V14.01,2013-10-19 04:42:00,
2013-10-19 00:47:00,50.9,46.2,27.85,North,0,0.0,0.0,84,0.00,,---,0.00,VWS V14.01,2013-10-19 04:47:00,
2013-10-19 00:53:00,50.7,46.1,27.88,North,0,0.0,0.0,84,0.00,,---,0.00,VWS V14.01,2013-10-19 04:53:00,
2013-10-19 00:58:00,50.7,46.4,27.88,North,0,0.0,0.0,85,0.00,,---,0.00,VWS V14.01,2013-10-19 04:58:00,
2013-10-19 01:03:00,50.7,46.4,27.88,North,0,0.0,0.0,85,0.00,,---,0.00,VWS V14.01,2013-10-19 05:03:00,
2013-10-19 01:08:00,50.9,46.2,27.85,North,0,0.0,0.0,84,0.00,,---,0.00,VWS V14.01,2013-10-19 05:08:00,
2013-10-19 01:13:00,50.9,46.2,27.85,North,0,0.0,0.0,84,0.00,,---,0.00,VWS V14.01,2013-10-19 05:13:00,
2013-10-19 01:18:00,50.9,46.6,27.85,North,0,0.0,0.0,85,0.00,,---,0.00,VWS V14.01,2013-10-19 05:18:00,
2013-10-19 01:23:00,50.9,46.2,27.85,North,0,0.0,0.0,84,0.00,,---,0.00,VWS V14.01,2013-10-19 05:23:00,
2013-10-19 01:28:00,50.9,46.2,27.85,North,0,0.0,0.0,84,0.00,,---,0.00,VWS V14.01,2013-10-19 05:28:00,
2013-10-19 01:33:00,50.9,46.2,27.85,North,0,0.0,0.0,84,0.00,,---,0.00,VWS V14.01,2013-10-19 05:33:00,
2013-10-19 01:38:00,50.9,46.2,27.85,North,0,0.0,0.0,84,0.00,,---,0.00,VWS V14.01,2013-10-19 05:38:00,
2013-10-19 01:43:00,50.9,46.2,27.85,North,0,0.0,0.0,84,0.00,,---,0.00,VWS V14.01,2013-10-19 05:43:00,
2013-10-19 01:48:00,50.7,46.1,27.85,North,0,0.0,0.0,84,0.00,,---,0.00,VWS V14.01,2013-10-19 05:48:00,
2013-10-19 01:53:00,50.7,46.4,27.85,North,0,0.0,0.0,85,0.00,,---,0.00,VWS V14.01,2013-10-19 05:53:00,
2013-10-19 01:58:00,50.5,46.2,27.85,North,0,0.0,0.0,85,0.00,,---,0.00,VWS V14.01,2013-10-19 05:58:00,
2013-10-19 02:03:00,50.5,46.2,27.85,North,0,0.0,0.0,85,0.00,,---,0.00,VWS V14.01,2013-10-19 06:03:00,
2013-10-19 02:08:00,50.4,46.0,27.85,North,0,0.0,0.0,85,0.00,,---,0.00,VWS V14.01,2013-10-19 06:08:00,
2013-10-19 02:13:00,50.4,46.0,27.85,North,0,0.0,0.0,85,0.00,,---,0.00,VWS V14.01,2013-10-19 06:13:00,
2013-10-19 02:18:00,50.4,46.3,27.85,North,0,0.0,0.0,86,0.00,,---,0.00,VWS V14.01,2013-10-19 06:18:00,
2013-10-19 02:23:00,50.4,46.0,27.85,North,0,0.0,0.0,85,0.00,,---,0.00,VWS V14.01,2013-10-19 06:23:00,
2013-10-19 02:28:00,50.4,46.0,27.85,North,0,0.0,0.0,85,0.00,,---,0.00,VWS V14.01,2013-10-19 06:28:00,
2013-10-19 02:33:00,50.5,46.2,27.85,North,0,0.0,0.0,85,0.00,,---,0.00,VWS V14.01,2013-10-19 06:33:00,
2013-10-19 02:38:00,50.9,46.6,27.82,North,0,0.0,0.0,85,0.00,,---,0.00,VWS V14.01,2013-10-19 06:38:00,
2013-10-19 02:43:00,50.9,46.6,27.82,North,0,0.0,0.0,85,0.00,,---,0.00,VWS V14.01,2013-10-19 06:43:00,
2013-10-19 02:48:00,50.9,46.6,27.82,North,0,0.0,0.0,85,0.00,,---,0.00,VWS V14.01,2013-10-19 06:48:00,
2013-10-19 02:53:00,50.9,46.6,27.82,North,0,0.0,0.0,85,0.00,,---,0.00,VWS V14.01,2013-10-19 06:53:00,
2013-10-19 02:59:00,50.9,46.6,27.82,North,0,0.0,0.0,85,0.00,,---,0.00,VWS V14.01,2013-10-19 06:59:00,
2013-10-19 03:04:00,50.9,46.6,27.82,North,0,0.0,0.0,85,0.00,,---,0.00,VWS V14.01,2013-10-19 07:04:00,
2013-10-19 03:09:00,51.1,46.7,27.85,North,0,0.0,0.0,85,0.00,,---,0.00,VWS V14.01,2013-10-19 07:09:00,
2013-10-19 03:14:00,51.1,46.7,27.85,North,0,0.0,0.0,85,0.00,,---,0.00,VWS V14.01,2013-10-19 07:14:00,
2013-10-19 03:19:00,51.1,46.7,27.85,North,0,0.0,0.0,85,0.00,,---,0.00,VWS V14.01,2013-10-19 07:19:00,
2013-10-19 03:24:00,50.9,46.6,27.82,North,0,0.0,0.0,85,0.00,,---,0.00,VWS V14.01,2013-10-19 07:24:00,
2013-10-19 03:29:00,50.9,46.6,27.82,North,0,0.0,0.0,85,0.00,,---,0.00,VWS V14.01,2013-10-19 07:29:00,
2013-10-19 03:34:00,50.9,46.6,27.82,North,0,0.0,0.0,85,0.00,,---,0.00,VWS V14.01,2013-10-19 07:34:00,
2013-10-19 03:39:00,50.9,46.6,27.82,North,0,0.0,0.0,85,0.00,,---,0.00,VWS V14.01,2013-10-19 07:39:00,
2013-10-19 03:44:00,50.9,46.6,27.82,North,0,0.0,0.0,85,0.00,,---,0.00,VWS V14.01,2013-10-19 07:44:00,
2013-10-19 03:49:00,50.7,46.7,27.82,North,0,0.0,0.0,86,0.00,,---,0.00,VWS V14.01,2013-10-19 07:49:00,
2013-10-19 03:54:00,50.7,46.4,27.82,North,0,0.0,0.0,85,0.00,,---,0.00,VWS V14.01,2013-10-19 07:54:00,
2013-10-19 03:59:00,50.7,46.4,27.82,North,0,0.0,0.0,85,0.00,,---,0.00,VWS V14.01,2013-10-19 07:59:00,
2013-10-19 04:04:00,50.9,46.9,27.82,North,0,0.0,0.0,86,0.00,,---,0.00,VWS V14.01,2013-10-19 08:04:00,
2013-10-19 04:09:00,50.9,46.6,27.82,North,0,0.0,0.0,85,0.00,,---,0.00,VWS V14.01,2013-10-19 08:09:00,
2013-10-19 04:14:00,51.1,46.7,27.82,North,0,0.0,0.0,85,0.00,,---,0.00,VWS V14.01,2013-10-19 08:14:00,
2013-10-19 04:19:00,51.1,46.7,27.82,North,0,0.0,0.0,85,0.00,,---,0.00,VWS V14.01,2013-10-19 08:19:00,
2013-10-19 04:24:00,51.1,46.7,27.82,North,0,0.0,0.0,85,0.00,,---,0.00,VWS V14.01,2013-10-19 08:24:00,
2013-10-19 04:29:00,51.1,46.7,27.82,North,0,0.0,0.0,85,0.00,,---,0.00,VWS V14.01,2013-10-19 08:29:00,
2013-10-19 04:34:00,51.3,47.2,27.79,North,0,0.0,0.0,86,0.00,,---,0.00,VWS V14.01,2013-10-19 08:34:00,
2013-10-19 04:39:00,51.3,46.9,27.79,North,0,0.0,0.0,85,0.00,,---,0.00,VWS V14.01,2013-10-19 08:39:00,
2013-10-19 04:44:00,51.3,46.9,27.79,North,0,0.0,0.0,85,0.00,,---,0.00,VWS V14.01,2013-10-19 08:44:00,
2013-10-19 04:50:00,51.3,47.2,27.79,North,0,0.0,0.0,86,0.00,,---,0.00,VWS V14.01,2013-10-19 08:50:00,
2013-10-19 04:55:00,51.4,47.4,27.79,North,0,0.0,0.0,86,0.00,,---,0.00,VWS V14.01,2013-10-19 08:55:00,
2013-10-19 05:00:00,51.4,47.4,27.79,North,0,0.0,0.0,86,0.00,,---,0.00,VWS V14.01,2013-10-19 09:00:00,
2013-10-19 05:05:00,51.4,47.4,27.79,North,0,0.0,0.0,86,0.00,,---,0.00,VWS V14.01,2013-10-19 09:05:00,
2013-10-19 05:10:00,51.4,47.4,27.79,North,0,0.0,0.0,86,0.00,,---,0.00,VWS V14.01,2013-10-19 09:10:00,
2013-10-19 05:15:00,51.4,47.4,27.79,North,0,0.0,0.0,86,0.00,,---,0.00,VWS V14.01,2013-10-19 09:15:00,
2013-10-19 05:20:00,51.4,47.4,27.79,North,0,0.0,0.0,86,0.00,,---,0.00,VWS V14.01,2013-10-19 09:20:00,
2013-10-19 05:25:00,51.4,47.4,27.79,North,0,0.0,0.0,86,0.00,,---,0.00,VWS V14.01,2013-10-19 09:25:00,
2013-10-19 05:30:00,51.4,47.4,27.79,North,0,0.0,0.0,86,0.00,,---,0.00,VWS V14.01,2013-10-19 09:30:00,
2013-10-19 05:35:00,51.4,47.4,27.82,North,0,0.0,0.0,86,0.00,,---,0.00,VWS V14.01,2013-10-19 09:35:00,
2013-10-19 05:40:00,51.4,47.4,27.82,North,0,0.0,0.0,86,0.00,,---,0.00,VWS V14.01,2013-10-19 09:40:00,
2013-10-19 05:45:00,51.4,48.0,27.82,North,0,0.0,0.0,88,0.00,,---,0.00,VWS V14.01,2013-10-19 09:45:00,
2013-10-19 05:50:00,51.6,48.2,27.82,North,0,0.0,0.0,88,0.00,,---,0.00,VWS V14.01,2013-10-19 09:50:00,
2013-10-19 05:55:00,51.4,48.0,27.82,North,0,0.0,0.0,88,0.00,,---,0.00,VWS V14.01,2013-10-19 09:55:00,
2013-10-19 06:00:00,51.4,48.0,27.82,North,0,0.0,0.0,88,0.00,,---,0.00,VWS V14.01,2013-10-19 10:00:00,
2013-10-19 06:05:00,51.4,48.0,27.79,North,0,0.0,0.0,88,0.00,,---,0.00,VWS V14.01,2013-10-19 10:05:00,
2013-10-19 06:10:00,51.3,47.8,27.79,North,0,0.0,0.0,88,0.00,,---,0.00,VWS V14.01,2013-10-19 10:10:00,
2013-10-19 06:15:00,51.4,48.3,27.79,North,0,0.0,0.0,89,0.00,,---,0.00,VWS V14.01,2013-10-19 10:15:00,
2013-10-19 06:20:00,51.4,48.3,27.82,North,0,0.0,0.0,89,0.00,,---,0.00,VWS V14.01,2013-10-19 10:20:00,
2013-10-19 06:25:00,51.4,48.3,27.82,North,0,0.0,0.0,89,0.00,,---,0.00,VWS V14.01,2013-10-19 10:25:00,
2013-10-19 06:30:00,51.3,48.1,27.82,North,0,0.0,0.0,89,0.00,,---,0.00,VWS V14.01,2013-10-19 10:30:00,
2013-10-19 06:36:00,51.3,48.1,27.79,North,0,0.0,0.0,89,0.00,,---,0.00,VWS V14.01,2013-10-19 10:36:00,
2013-10-19 06:41:00,51.3,48.1,27.79,North,0,0.0,0.0,89,0.00,,---,0.00,VWS V14.01,2013-10-19 10:41:00,
2013-10-19 06:46:00,51.3,48.1,27.79,North,0,0.0,0.0,89,0.00,,---,0.00,VWS V14.01,2013-10-19 10:46:00,
2013-10-19 06:51:00,51.3,48.1,27.79,North,0,0.0,0.0,89,0.00,,---,0.00,VWS V14.01,2013-10-19 10:51:00,
2013-10-19 06:56:00,51.1,48.2,27.79,North,0,0.0,0.0,90,0.00,,---,0.00,VWS V14.01,2013-10-19 10:56:00,
2013-10-19 07:01:00,51.3,48.7,27.79,North,0,0.0,0.0,91,0.00,,---,0.00,VWS V14.01,2013-10-19 11:01:00,
2013-10-19 07:06:00,51.3,48.7,27.79,North,0,0.0,0.0,91,0.00,,---,0.00,VWS V14.01,2013-10-19 11:06:00,
2013-10-19 07:11:00,51.3,48.7,27.79,North,0,0.0,0.0,91,0.00,,---,0.00,VWS V14.01,2013-10-19 11:11:00,
2013-10-19 07:16:00,51.3,48.7,27.79,North,0,0.0,0.0,91,0.00,,---,0.00,VWS V14.01,2013-10-19 11:16:00,
2013-10-19 07:21:00,51.3,48.7,27.79,North,0,0.0,0.0,91,0.00,,---,0.00,VWS V14.01,2013-10-19 11:21:00,
2013-10-19 07:26:00,51.1,48.2,27.79,North,0,0.0,0.0,90,0.00,,---,0.00,VWS V14.01,2013-10-19 11:26:00,
2013-10-19 07:31:00,50.9,48.1,27.79,North,0,0.0,0.0,90,0.00,,---,0.00,VWS V14.01,2013-10-19 11:31:00,
2013-10-19 07:36:00,50.9,48.1,27.82,North,0,0.0,0.0,90,0.00,,---,0.00,VWS V14.01,2013-10-19 11:36:00,
2013-10-19 07:41:00,50.9,48.4,27.82,North,0,0.0,0.0,91,0.00,,---,0.00,VWS V14.01,2013-10-19 11:41:00,
2013-10-19 07:46:00,50.9,48.7,27.82,North,0,0.0,0.0,92,0.00,,---,0.00,VWS V14.01,2013-10-19 11:46:00,
2013-10-19 07:51:00,51.1,48.8,27.79,North,0,0.0,0.0,92,0.00,,---,0.00,VWS V14.01,2013-10-19 11:51:00,
2013-10-19 07:56:00,51.1,48.8,27.79,North,0,0.0,0.0,92,0.00,,---,0.00,VWS V14.01,2013-10-19 11:56:00,
2013-10-19 08:01:00,51.1,48.8,27.79,North,0,0.0,0.0,92,0.00,,---,0.00,VWS V14.01,2013-10-19 12:01:00,
2013-10-19 08:06:00,50.9,48.7,27.79,North,0,0.0,0.0,92,0.00,,---,0.00,VWS V14.01,2013-10-19 12:06:00,
2013-10-19 08:11:00,50.9,48.7,27.79,North,0,0.0,0.0,92,0.00,,---,0.00,VWS V14.01,2013-10-19 12:11:00,
2013-10-19 08:16:00,50.9,48.7,27.79,North,0,0.0,0.0,92,0.00,,---,0.00,VWS V14.01,2013-10-19 12:16:00,
2013-10-19 08:21:00,50.9,48.7,27.79,North,0,0.0,0.0,92,0.00,,---,0.00,VWS V14.01,2013-10-19 12:21:00,
2013-10-19 08:27:00,50.9,48.7,27.79,North,0,0.0,0.0,92,0.00,,---,0.00,VWS V14.01,2013-10-19 12:27:00,
2013-10-19 08:32:00,51.1,48.8,27.79,North,0,0.0,0.0,92,0.00,,---,0.00,VWS V14.01,2013-10-19 12:32:00,
2013-10-19 08:37:00,51.3,49.0,27.82,North,0,0.0,0.0,92,0.00,,---,0.00,VWS V14.01,2013-10-19 12:37:00,
2013-10-19 08:42:00,51.3,49.0,27.82,North,0,0.0,0.0,92,0.00,,---,0.00,VWS V14.01,2013-10-19 12:42:00,
2013-10-19 08:47:00,51.4,49.2,27.82,North,0,0.0,0.0,92,0.00,,---,0.00,VWS V14.01,2013-10-19 12:47:00,
2013-10-19 08:52:00,51.6,49.1,27.82,North,0,0.0,0.0,91,0.00,,---,0.00,VWS V14.01,2013-10-19 12:52:00,
2013-10-19 08:57:00,51.6,49.1,27.82,North,0,0.0,0.0,91,0.00,,---,0.00,VWS V14.01,2013-10-19 12:57:00,
2013-10-19 09:02:00,51.8,49.3,27.82,North,0,0.0,0.0,91,0.00,,---,0.00,VWS V14.01,2013-10-19 13:02:00,
2013-10-19 09:07:00,52.0,49.1,27.82,North,0,0.0,0.0,90,0.00,,---,0.00,VWS V14.01,2013-10-19 13:07:00,
2013-10-19 09:12:00,52.2,49.6,27.82,North,0,0.0,0.0,91,0.00,,---,0.00,VWS V14.01,2013-10-19 13:12:00,
2013-10-19 09:17:00,52.3,49.5,27.82,North,0,0.0,0.0,90,0.00,,---,0.00,VWS V14.01,2013-10-19 13:17:00,
2013-10-19 09:22:00,52.3,49.5,27.82,North,0,0.0,0.0,90,0.00,,---,0.00,VWS V14.01,2013-10-19 13:22:00,
2013-10-19 09:27:00,52.9,50.0,27.82,North,0,0.0,0.0,90,0.00,,---,0.00,VWS V14.01,2013-10-19 13:27:00,
2013-10-19 09:32:00,53.1,50.2,27.82,North,0,0.0,0.0,90,0.00,,---,0.00,VWS V14.01,2013-10-19 13:32:00,
2013-10-19 09:37:00,53.2,50.1,27.82,North,0,0.0,0.0,89,0.00,,---,0.00,VWS V14.01,2013-10-19 13:37:00,
2013-10-19 09:42:00,53.4,50.3,27.82,North,0,0.0,0.0,89,0.00,,---,0.00,VWS V14.01,2013-10-19 13:42:00,
2013-10-19 09:47:00,53.6,50.1,27.82,North,0,0.0,0.0,88,0.00,,---,0.00,VWS V14.01,2013-10-19 13:47:00,
2013-10-19 09:52:00,53.8,50.0,27.82,North,0,0.0,0.0,87,0.00,,---,0.00,VWS V14.01,2013-10-19 13:52:00,
2013-10-19 09:57:00,53.8,49.7,27.82,North,0,0.0,0.0,86,0.00,,---,0.00,VWS V14.01,2013-10-19 13:57:00,
2013-10-19 10:02:00,54.0,49.9,27.82,North,0,0.0,0.0,86,0.00,,---,0.00,VWS V14.01,2013-10-19 14:02:00,
2013-10-19 10:08:00,54.1,49.7,27.82,North,0,0.0,0.0,85,0.00,,---,0.00,VWS V14.01,2013-10-19 14:08:00,
2013-10-19 10:13:00,54.3,49.9,27.82,North,0,0.0,0.0,85,0.00,,---,0.00,VWS V14.01,2013-10-19 14:13:00,
2013-10-19 10:18:00,54.3,49.9,27.82,North,0,0.0,0.0,85,0.00,,---,0.00,VWS V14.01,2013-10-19 14:18:00,
2013-10-19 10:23:00,54.3,49.9,27.82,North,0,0.0,0.0,85,0.00,,---,0.00,VWS V14.01,2013-10-19 14:23:00,
2013-10-19 10:28:00,54.5,50.1,27.82,North,0,0.0,0.0,85,0.00,,---,0.00,VWS V14.01,2013-10-19 14:28:00,
2013-10-19 10:33:00,54.7,50.3,27.82,North,0,0.0,0.0,85,0.00,,---,0.00,VWS V14.01,2013-10-19 14:33:00,
2013-10-19 10:38:00,54.9,50.4,27.82,North,0,0.0,0.0,85,0.00,,---,0.00,VWS V14.01,2013-10-19 14:38:00,
2013-10-19 10:43:00,55.0,50.3,27.82,North,0,0.0,0.0,84,0.00,,---,0.00,VWS V14.01,2013-10-19 14:43:00,
2013-10-19 10:48:00,54.9,50.1,27.82,North,0,0.0,0.0,84,0.00,,---,0.00,VWS V14.01,2013-10-19 14:48:00,
2013-10-19 10:53:00,54.9,49.8,27.82,North,0,0.0,0.0,83,0.00,,---,0.00,VWS V14.01,2013-10-19 14:53:00,
2013-10-19 10:58:00,55.0,50.0,27.82,North,0,0.0,0.0,83,0.00,,---,0.00,VWS V14.01,2013-10-19 14:58:00,
2013-10-19 11:03:00,54.9,49.8,27.82,North,0,0.0,0.0,83,0.00,,---,0.00,VWS V14.01,2013-10-19 15:03:00,
2013-10-19 11:08:00,54.7,49.6,27.82,North,0,0.0,0.0,83,0.00,,---,0.00,VWS V14.01,2013-10-19 15:08:00,
2013-10-19 11:13:00,54.7,49.6,27.82,North,0,0.0,0.0,83,0.00,,---,0.00,VWS V14.01,2013-10-19 15:13:00,
2013-10-19 11:18:00,54.9,49.8,27.82,North,0,0.0,0.0,83,0.00,,---,0.00,VWS V14.01,2013-10-19 15:18:00,
2013-10-19 11:23:00,55.0,50.3,27.85,North,0,0.0,0.0,84,0.00,,---,0.00,VWS V14.01,2013-10-19 15:23:00,
2013-10-19 11:28:00,55.4,50.3,27.85,North,0,0.0,0.0,83,0.00,,---,0.00,VWS V14.01,2013-10-19 15:28:00,
2013-10-19 11:33:00,55.9,50.9,27.85,North,0,0.0,0.0,83,0.00,,---,0.00,VWS V14.01,2013-10-19 15:33:00,
2013-10-19 11:38:00,55.9,50.5,27.85,North,0,0.0,0.0,82,0.00,,---,0.00,VWS V14.01,2013-10-19 15:38:00,
2013-10-19 11:43:00,56.1,50.4,27.85,North,0,0.0,0.0,81,0.00,,---,0.00,VWS V14.01,2013-10-19 15:43:00,
2013-10-19 11:48:00,56.5,50.4,27.85,North,0,0.0,0.0,80,0.00,,---,0.00,VWS V14.01,2013-10-19 15:48:00,
2013-10-19 11:53:00,56.3,49.9,27.85,North,0,0.0,0.0,79,0.00,,---,0.00,VWS V14.01,2013-10-19 15:53:00,
2013-10-19 11:59:00,56.8,50.7,27.85,North,0,0.0,0.0,80,0.00,,---,0.00,VWS V14.01,2013-10-19 15:59:00,
2013-10-19 12:04:00,57.4,51.3,27.85,North,0,0.0,0.0,80,0.00,,---,0.00,VWS V14.01,2013-10-19 16:04:00,
2013-10-19 12:09:00,57.7,51.3,27.85,North,0,0.0,0.0,79,0.00,,---,0.00,VWS V14.01,2013-10-19 16:09:00,
2013-10-19 12:14:00,58.1,51.3,27.85,North,0,0.0,0.0,78,0.00,,---,0.00,VWS V14.01,2013-10-19 16:14:00,
2013-10-19 12:19:00,57.9,51.1,27.85,North,0,0.0,0.0,78,0.00,,---,0.00,VWS V14.01,2013-10-19 16:19:00,
2013-10-19 12:24:00,57.9,51.1,27.85,North,0,0.0,0.0,78,0.00,,---,0.00,VWS V14.01,2013-10-19 16:24:00,
2013-10-19 12:29:00,57.9,51.1,27.85,North,0,0.0,0.0,78,0.00,,---,0.00,VWS V14.01,2013-10-19 16:29:00,
2013-10-19 12:34:00,57.9,51.1,27.85,North,0,0.0,0.0,78,0.00,,---,0.00,VWS V14.01,2013-10-19 16:34:00,
2013-10-19 12:39:00,58.5,51.6,27.82,North,0,0.0,0.0,78,0.00,,---,0.00,VWS V14.01,2013-10-19 16:39:00,
2013-10-19 12:44:00,58.5,51.3,27.82,North,0,0.0,0.0,77,0.00,,---,0.00,VWS V14.01,2013-10-19 16:44:00,
2013-10-19 12:49:00,58.6,51.8,27.82,North,0,0.0,0.0,78,0.00,,---,0.00,VWS V14.01,2013-10-19 16:49:00,
2013-10-19 12:54:00,59.0,51.8,27.82,North,0,0.0,0.0,77,0.00,,---,0.00,VWS V14.01,2013-10-19 16:54:00,
2013-10-19 12:59:00,59.0,51.1,27.82,North,0,0.0,0.0,75,0.00,,---,0.00,VWS V14.01,2013-10-19 16:59:00,
2013-10-19 13:04:00,59.0,51.1,27.82,North,0,0.0,0.0,75,0.00,,---,0.00,VWS V14.01,2013-10-19 17:04:00,
2013-10-19 13:09:00,58.8,50.6,27.82,North,0,0.0,0.0,74,0.00,,---,0.00,VWS V14.01,2013-10-19 17:09:00,
2013-10-19 13:14:00,59.2,50.5,27.82,North,0,0.0,0.0,73,0.00,,---,0.00,VWS V14.01,2013-10-19 17:14:00,
2013-10-19 13:19:00,59.4,51.1,27.82,North,0,0.0,0.0,74,0.00,,---,0.00,VWS V14.01,2013-10-19 17:19:00,
2013-10-19 13:24:00,59.4,51.5,27.82,North,0,0.0,0.0,75,0.00,,---,0.00,VWS V14.01,2013-10-19 17:24:00,
2013-10-19 13:29:00,59.2,50.9,27.82,North,0,0.0,0.0,74,0.00,,---,0.00,VWS V14.01,2013-10-19 17:29:00,
2013-10-19 13:34:00,59.4,51.1,27.82,North,0,0.0,0.0,74,0.00,,---,0.00,VWS V14.01,2013-10-19 17:34:00,
2013-10-19 13:40:00,59.5,51.3,27.82,North,0,0.0,0.0,74,0.00,,---,0.00,VWS V14.01,2013-10-19 17:40:00,
2013-10-19 13:45:00,59.9,51.6,27.82,North,0,0.0,0.0,74,0.00,,---,0.00,VWS V14.01,2013-10-19 17:45:00,
2013-10-19 13:50:00,59.7,51.1,27.82,North,0,0.0,0.0,73,0.00,,---,0.00,VWS V14.01,2013-10-19 17:50:00,
2013-10-19 13:55:00,59.7,51.1,27.82,North,0,0.0,0.0,73,0.00,,---,0.00,VWS V14.01,2013-10-19 17:55:00,
2013-10-19 14:00:00,59.5,50.9,27.82,North,0,0.0,0.0,73,0.00,,---,0.00,VWS V14.01,2013-10-19 18:00:00,
2013-10-19 14:05:00,59.5,50.5,27.82,North,0,0.0,0.0,72,0.00,,---,0.00,VWS V14.01,2013-10-19 18:05:00,
2013-10-19 14:10:00,60.4,52.1,27.82,North,0,0.0,0.0,74,0.00,,---,0.00,VWS V14.01,2013-10-19 18:10:00,
2013-10-19 14:15:00,60.8,52.1,27.82,North,0,0.0,0.0,73,0.00,,---,0.00,VWS V14.01,2013-10-19 18:15:00,
2013-10-19 14:20:00,61.0,52.3,27.82,North,0,0.0,0.0,73,0.00,,---,0.00,VWS V14.01,2013-10-19 18:20:00,
2013-10-19 14:25:00,61.3,52.6,27.82,North,0,0.0,0.0,73,0.00,,---,0.00,VWS V14.01,2013-10-19 18:25:00,
2013-10-19 14:30:00,61.9,53.1,27.82,North,0,0.0,0.0,73,0.00,,---,0.00,VWS V14.01,2013-10-19 18:30:00,
2013-10-19 14:35:00,61.9,52.8,27.82,North,0,0.0,0.0,72,0.00,,---,0.00,VWS V14.01,2013-10-19 18:35:00,
2013-10-19 14:40:00,62.6,53.5,27.82,North,0,0.0,0.0,72,0.00,,---,0.00,VWS V14.01,2013-10-19 18:40:00,
2013-10-19 14:45:00,62.6,51.9,27.82,North,0,0.0,0.0,68,0.00,,---,0.00,VWS V14.01,2013-10-19 18:45:00,
2013-10-19 14:50:00,62.6,51.9,27.79,North,0,0.0,0.0,68,0.00,,---,0.00,VWS V14.01,2013-10-19 18:50:00,
2013-10-19 14:55:00,62.6,51.5,27.79,North,0,0.0,0.0,67,0.00,,---,0.00,VWS V14.01,2013-10-19 18:55:00,
2013-10-19 15:00:00,63.1,52.0,27.79,North,0,0.0,0.0,67,0.00,,---,0.00,VWS V14.01,2013-10-19 19:00:00,
2013-10-19 15:05:00,63.0,51.8,27.79,North,0,0.0,0.0,67,0.00,,---,0.00,VWS V14.01,2013-10-19 19:05:00,
2013-10-19 15:10:00,62.4,51.3,27.79,North,0,0.0,0.0,67,0.00,,---,0.00,VWS V14.01,2013-10-19 19:10:00,
2013-10-19 15:15:00,62.1,51.4,27.79,North,0,0.0,0.0,68,0.00,,---,0.00,VWS V14.01,2013-10-19 19:15:00,
2013-10-19 15:21:00,61.9,51.6,27.79,North,0,0.0,0.0,69,0.00,,---,0.00,VWS V14.01,2013-10-19 19:21:00,
2013-10-19 15:26:00,61.9,51.6,27.79,North,0,0.0,0.0,69,0.00,,---,0.00,VWS V14.01,2013-10-19 19:26:00,
2013-10-19 15:31:00,62.2,52.0,27.79,North,0,0.0,0.0,69,0.00,,---,0.00,VWS V14.01,2013-10-19 19:31:00,
2013-10-19 15:36:00,61.9,51.2,27.79,North,0,0.0,0.0,68,0.00,,---,0.00,VWS V14.01,2013-10-19 19:36:00,
2013-10-19 15:41:00,61.5,50.9,27.79,North,0,0.0,0.0,68,0.00,,---,0.00,VWS V14.01,2013-10-19 19:41:00,
2013-10-19 15:46:00,61.3,50.7,27.79,North,0,0.0,0.0,68,0.00,,---,0.00,VWS V14.01,2013-10-19 19:46:00,
2013-10-19 15:51:00,61.2,50.5,27.79,North,0,0.0,0.0,68,0.00,,---,0.00,VWS V14.01,2013-10-19 19:51:00,
2013-10-19 15:56:00,61.3,51.1,27.79,North,0,0.0,0.0,69,0.00,,---,0.00,VWS V14.01,2013-10-19 19:56:00,
2013-10-19 16:01:00,61.3,51.1,27.79,North,0,0.0,0.0,69,0.00,,---,0.00,VWS V14.01,2013-10-19 20:01:00,
2013-10-19 16:06:00,61.2,50.9,27.79,North,0,0.0,0.0,69,0.00,,---,0.00,VWS V14.01,2013-10-19 20:06:00,
2013-10-19 16:11:00,61.0,50.8,27.79,North,0,0.0,0.0,69,0.00,,---,0.00,VWS V14.01,2013-10-19 20:11:00,
2013-10-19 16:16:00,61.2,50.9,27.79,North,0,0.0,0.0,69,0.00,,---,0.00,VWS V14.01,2013-10-19 20:16:00,
2013-10-19 16:21:00,61.5,51.7,27.82,North,0,0.0,0.0,70,0.00,,---,0.00,VWS V14.01,2013-10-19 20:21:00,
2013-10-19 16:26:00,61.3,51.1,27.82,North,0,0.0,0.0,69,0.00,,---,0.00,VWS V14.01,2013-10-19 20:26:00,
2013-10-19 16:31:00,61.3,51.1,27.82,North,0,0.0,0.0,69,0.00,,---,0.00,VWS V14.01,2013-10-19 20:31:00,
2013-10-19 16:36:00,61.2,50.9,27.82,North,0,0.0,0.0,69,0.00,,---,0.00,VWS V14.01,2013-10-19 20:36:00,
2013-10-19 16:41:00,61.2,50.9,27.82,North,0,0.0,0.0,69,0.00,,---,0.00,VWS V14.01,2013-10-19 20:41:00,
2013-10-19 16:46:00,60.8,50.2,27.82,North,0,0.0,0.0,68,0.00,,---,0.00,VWS V14.01,2013-10-19 20:46:00,
2013-10-19 16:51:00,60.6,50.4,27.82,North,0,0.0,0.0,69,0.00,,---,0.00,VWS V14.01,2013-10-19 20:51:00,
2013-10-19 16:56:00,60.6,50.4,27.82,North,0,0.0,0.0,69,0.00,,---,0.00,VWS V14.01,2013-10-19 20:56:00,
2013-10-19 17:01:00,60.6,50.4,27.82,North,0,0.0,0.0,69,0.00,,---,0.00,VWS V14.01,2013-10-19 21:01:00,
2013-10-19 17:06:00,60.1,50.3,27.82,North,0,0.0,0.0,70,0.00,,---,0.00,VWS V14.01,2013-10-19 21:06:00,
2013-10-19 17:11:00,59.9,50.1,27.82,North,0,0.0,0.0,70,0.00,,---,0.00,VWS V14.01,2013-10-19 21:11:00,
2013-10-19 17:16:00,59.7,50.3,27.82,North,0,0.0,0.0,71,0.00,,---,0.00,VWS V14.01,2013-10-19 21:16:00,
2013-10-19 17:21:00,59.5,50.5,27.82,North,0,0.0,0.0,72,0.00,,---,0.00,VWS V14.01,2013-10-19 21:21:00,
2013-10-19 17:26:00,59.4,50.3,27.82,North,0,0.0,0.0,72,0.00,,---,0.00,VWS V14.01,2013-10-19 21:26:00,
2013-10-19 17:31:00,59.2,50.2,27.82,North,0,0.0,0.0,72,0.00,,---,0.00,VWS V14.01,2013-10-19 21:31:00,
2013-10-19 17:36:00,58.8,49.8,27.82,North,0,0.0,0.0,72,0.00,,---,0.00,VWS V14.01,2013-10-19 21:36:00,
2013-10-19 17:41:00,58.5,49.5,27.82,North,0,0.0,0.0,72,0.00,,---,0.00,VWS V14.01,2013-10-19 21:41:00,
2013-10-19 17:46:00,58.5,49.8,27.82,North,0,0.0,0.0,73,0.00,,---,0.00,VWS V14.01,2013-10-19 21:46:00,
2013-10-19 17:51:00,58.3,49.7,27.82,North,0,0.0,0.0,73,0.00,,---,0.00,VWS V14.01,2013-10-19 21:51:00,
2013-10-19 17:57:00,57.9,49.3,27.82,North,0,0.0,0.0,73,0.00,,---,0.00,VWS V14.01,2013-10-19 21:57:00,
2013-10-19 18:02:00,57.4,49.2,27.82,North,0,0.0,0.0,74,0.00,,---,0.00,VWS V14.01,2013-10-19 22:02:00,
2013-10-19 18:07:00,57.0,49.2,27.82,North,0,0.0,0.0,75,0.00,,---,0.00,VWS V14.01,2013-10-19 22:07:00,
2013-10-19 18:12:00,56.7,48.8,27.82,North,0,0.0,0.0,75,0.00,,---,0.00,VWS V14.01,2013-10-19 22:12:00,
2013-10-19 18:17:00,56.3,49.2,27.82,North,0,0.0,0.0,77,0.00,,---,0.00,VWS V14.01,2013-10-19 22:17:00,
2013-10-19 18:22:00,55.9,49.2,27.82,North,0,0.0,0.0,78,0.00,,---,0.00,VWS V14.01,2013-10-19 22:22:00,
2013-10-19 18:27:00,55.6,48.8,27.82,North,0,0.0,0.0,78,0.00,,---,0.00,VWS V14.01,2013-10-19 22:27:00,
2013-10-19 18:32:00,55.2,48.8,27.82,North,0,0.0,0.0,79,0.00,,---,0.00,VWS V14.01,2013-10-19 22:32:00,
2013-10-19 18:37:00,54.7,48.3,27.82,North,0,0.0,0.0,79,0.00,,---,0.00,VWS V14.01,2013-10-19 22:37:00,
2013-10-19 18:42:00,54.3,48.3,27.82,North,0,0.0,0.0,80,0.00,,---,0.00,VWS V14.01,2013-10-19 22:42:00,
2013-10-19 18:47:00,54.1,48.1,27.82,North,0,0.0,0.0,80,0.00,,---,0.00,VWS V14.01,2013-10-19 22:47:00,
2013-10-19 18:52:00,53.8,48.1,27.82,North,0,0.0,0.0,81,0.00,,---,0.00,VWS V14.01,2013-10-19 22:52:00,
2013-10-19 18:57:00,53.6,48.2,27.82,North,0,0.0,0.0,82,0.00,,---,0.00,VWS V14.01,2013-10-19 22:57:00,
2013-10-19 19:02:00,53.2,48.2,27.82,North,0,0.0,0.0,83,0.00,,---,0.00,VWS V14.01,2013-10-19 23:02:00,
2013-10-19 19:07:00,53.1,48.0,27.82,North,0,0.0,0.0,83,0.00,,---,0.00,VWS V14.01,2013-10-19 23:07:00,
2013-10-19 19:13:00,52.7,47.7,27.82,North,0,0.0,0.0,83,0.00,,---,0.00,VWS V14.01,2013-10-19 23:13:00,
2013-10-19 19:18:00,52.5,47.8,27.82,North,0,0.0,0.0,84,0.00,,---,0.00,VWS V14.01,2013-10-19 23:18:00,
2013-10-19 19:23:00,52.3,48.0,27.85,North,0,0.0,0.0,85,0.00,,---,0.00,VWS V14.01,2013-10-19 23:23:00,
2013-10-19 19:28:00,52.0,47.6,27.85,North,0,0.0,0.0,85,0.00,,---,0.00,VWS V14.01,2013-10-19 23:28:00,
2013-10-19 19:33:00,51.8,47.4,27.85,North,0,0.0,0.0,85,0.00,,---,0.00,VWS V14.01,2013-10-19 23:33:00,
2013-10-19 19:38:00,51.6,47.6,27.85,North,0,0.0,0.0,86,0.00,,---,0.00,VWS V14.01,2013-10-19 23:38:00,
2013-10-19 19:43:00,51.6,47.6,27.85,North,0,0.0,0.0,86,0.00,,---,0.00,VWS V14.01,2013-10-19 23:43:00,
2013-10-19 19:48:00,51.4,47.4,27.85,North,0,0.0,0.0,86,0.00,,---,0.00,VWS V14.01,2013-10-19 23:48:00,
2013-10-19 19:53:00,51.1,47.0,27.85,North,0,0.0,0.0,86,0.00,,---,0.00,VWS V14.01,2013-10-19 23:53:00,
2013-10-19 19:58:00,50.7,46.7,27.85,North,0,0.0,0.0,86,0.00,,---,0.00,VWS V14.01,2013-10-19 23:58:00,
2013-10-19 20:03:00,50.5,46.5,27.85,North,0,0.0,0.0,86,0.00,,---,0.00,VWS V14.01,2013-10-20 00:03:00,
2013-10-19 20:08:00,50.2,46.2,27.85,North,0,0.0,0.0,86,0.00,,---,0.00,VWS V14.01,2013-10-20 00:08:00,
2013-10-19 20:13:00,49.8,46.1,27.85,North,0,0.0,0.0,87,0.00,,---,0.00,VWS V14.01,2013-10-20 00:13:00,
2013-10-19 20:18:00,49.6,45.9,27.85,North,0,0.0,0.0,87,0.00,,---,0.00,VWS V14.01,2013-10-20 00:18:00,
2013-10-19 20:23:00,49.5,45.8,27.85,North,0,0.0,0.0,87,0.00,,---,0.00,VWS V14.01,2013-10-20 00:23:00,
2013-10-19 20:28:00,49.1,45.7,27.85,North,0,0.0,0.0,88,0.00,,---,0.00,VWS V14.01,2013-10-20 00:28:00,
2013-10-19 20:33:00,48.9,45.2,27.85,North,0,0.0,0.0,87,0.00,,---,0.00,VWS V14.01,2013-10-20 00:33:00,
2013-10-19 20:39:00,48.7,45.0,27.85,North,0,0.0,0.0,87,0.00,,---,0.00,VWS V14.01,2013-10-20 00:39:00,
2013-10-19 20:44:00,48.6,44.9,27.85,North,0,0.0,0.0,87,0.00,,---,0.00,VWS V14.01,2013-10-20 00:44:00,
2013-10-19 20:49:00,48.4,44.7,27.85,North,0,0.0,0.0,87,0.00,,---,0.00,VWS V14.01,2013-10-20 00:49:00,
2013-10-19 20:54:00,48.2,44.5,27.85,North,0,0.0,0.0,87,0.00,,---,0.00,VWS V14.01,2013-10-20 00:54:00,
2013-10-19 20:59:00,48.0,44.6,27.85,North,0,0.0,0.0,88,0.00,,---,0.00,VWS V14.01,2013-10-20 00:59:00,
2013-10-19 21:04:00,48.0,44.6,27.85,North,0,0.0,0.0,88,0.00,,---,0.00,VWS V14.01,2013-10-20 01:04:00,
2013-10-19 21:09:00,47.8,44.5,27.85,North,0,0.0,0.0,88,0.00,,---,0.00,VWS V14.01,2013-10-20 01:09:00,
2013-10-19 21:14:00,47.7,44.3,27.85,North,0,0.0,0.0,88,0.00,,---,0.00,VWS V14.01,2013-10-20 01:14:00,
2013-10-19 21:19:00,47.5,44.1,27.85,North,0,0.0,0.0,88,0.00,,---,0.00,VWS V14.01,2013-10-20 01:19:00,
2013-10-19 21:24:00,47.3,43.9,27.85,North,0,0.0,0.0,88,0.00,,---,0.00,VWS V14.01,2013-10-20 01:24:00,
2013-10-19 21:29:00,47.1,43.8,27.85,North,0,0.0,0.0,88,0.00,,---,0.00,VWS V14.01,2013-10-20 01:29:00,
2013-10-19 21:34:00,46.9,43.9,27.85,North,0,0.0,0.0,89,0.00,,---,0.00,VWS V14.01,2013-10-20 01:34:00,
2013-10-19 21:39:00,46.9,43.9,27.85,North,0,0.0,0.0,89,0.00,,---,0.00,VWS V14.01,2013-10-20 01:39:00,
2013-10-19 21:44:00,46.8,43.7,27.85,North,0,0.0,0.0,89,0.00,,---,0.00,VWS V14.01,2013-10-20 01:44:00,
2013-10-19 21:49:00,46.6,43.8,27.85,North,0,0.0,0.0,90,0.00,,---,0.00,VWS V14.01,2013-10-20 01:49:00,
2013-10-19 21:54:00,46.4,43.6,27.85,North,0,0.0,0.0,90,0.00,,---,0.00,VWS V14.01,2013-10-20 01:54:00,
2013-10-19 22:00:00,46.2,43.5,27.85,North,0,0.0,0.0,90,0.00,,---,0.00,VWS V14.01,2013-10-20 02:00:00,
2013-10-19 22:05:00,46.0,43.3,27.88,North,0,0.0,0.0,90,0.00,,---,0.00,VWS V14.01,2013-10-20 02:05:00,
2013-10-19 22:10:00,45.9,43.4,27.88,North,0,0.0,0.0,91,0.00,,---,0.00,VWS V14.01,2013-10-20 02:10:00,
2013-10-19 22:15:00,45.7,43.2,27.88,North,0,0.0,0.0,91,0.00,,---,0.00,VWS V14.01,2013-10-20 02:15:00,
2013-10-19 22:20:00,45.5,43.0,27.88,North,0,0.0,0.0,91,0.00,,---,0.00,VWS V14.01,2013-10-20 02:20:00,
2013-10-19 22:25:00,45.3,42.8,27.88,North,0,0.0,0.0,91,0.00,,---,0.00,VWS V14.01,2013-10-20 02:25:00,
2013-10-19 22:30:00,45.1,42.7,27.88,North,0,0.0,0.0,91,0.00,,---,0.00,VWS V14.01,2013-10-20 02:30:00,
2013-10-19 22:35:00,45.0,42.5,27.88,North,0,0.0,0.0,91,0.00,,---,0.00,VWS V14.01,2013-10-20 02:35:00,
2013-10-19 22:40:00,44.8,42.3,27.88,North,0,0.0,0.0,91,0.00,,---,0.00,VWS V14.01,2013-10-20 02:40:00,
2013-10-19 22:45:00,44.6,42.1,27.88,North,0,0.0,0.0,91,0.00,,---,0.00,VWS V14.01,2013-10-20 02:45:00,
2013-10-19 22:50:00,44.4,42.0,27.88,North,0,0.0,0.0,91,0.00,,---,0.00,VWS V14.01,2013-10-20 02:50:00,
2013-10-19 22:55:00,44.2,41.8,27.88,North,0,0.0,0.0,91,0.00,,---,0.00,VWS V14.01,2013-10-20 02:55:00,
2013-10-19 23:00:00,44.1,41.6,27.88,North,0,0.0,0.0,91,0.00,,---,0.00,VWS V14.01,2013-10-20 03:00:00,
2013-10-19 23:05:00,44.1,41.9,27.88,North,0,0.0,0.0,92,0.00,,---,0.00,VWS V14.01,2013-10-20 03:05:00,
2013-10-19 23:10:00,43.9,41.7,27.88,North,0,0.0,0.0,92,0.00,,---,0.00,VWS V14.01,2013-10-20 03:10:00,
2013-10-19 23:15:00,43.7,41.5,27.88,North,0,0.0,0.0,92,0.00,,---,0.00,VWS V14.01,2013-10-20 03:15:00,
2013-10-19 23:20:00,43.7,41.5,27.88,North,0,0.0,0.0,92,0.00,,---,0.00,VWS V14.01,2013-10-20 03:20:00,
2013-10-19 23:25:00,43.5,41.3,27.88,North,0,0.0,0.0,92,0.00,,---,0.00,VWS V14.01,2013-10-20 03:25:00,
2013-10-19 23:31:00,43.5,41.3,27.88,North,0,0.0,0.0,92,0.00,,---,0.00,VWS V14.01,2013-10-20 03:31:00,
2013-10-19 23:36:00,43.5,41.3,27.88,North,0,0.0,0.0,92,0.00,,---,0.00,VWS V14.01,2013-10-20 03:36:00,
2013-10-19 23:41:00,43.3,41.2,27.88,North,0,0.0,0.0,92,0.00,,---,0.00,VWS V14.01,2013-10-20 03:41:00,
2013-10-19 23:46:00,43.3,41.5,27.88,North,0,0.0,0.0,93,0.00,,---,0.00,VWS V14.01,2013-10-20 03:46:00,
2013-10-19 23:51:00,43.3,41.5,27.88,North,0,0.0,0.0,93,0.00,,---,0.00,VWS V14.01,2013-10-20 03:51:00,
2013-10-19 23:56:00,43.2,41.3,27.88,North,0,0.0,0.0,93,0.00,,---,0.00,VWS V14.01,2013-10-20 03:56:00,